Tracking 20036 objects as of 21-Nov-2019
Live streaming from Space Station
objects crossing your sky now

FLOCK 3P 2

Track FLOCK 3P 2 now!
10-day predictions
FLOCK 3P 2 is classified as:


NORAD ID: 41966
Int'l Code: 2017-008U
Perigee: 491.0 km
Apogee: 500.3 km
Inclination: 97.4 °
Period: 94.4 minutes
Semi major axis: 6866 km
RCS: Unknown
Launch date: February 15, 2017
Source: United States (US)
Launch site: SRIHARIKOTA (SRI)
aabbcc
Your satellite tracking list
Your tracking list is empty




NASA's NSSDC Master Catalog

Two Line Element Set (TLE):
1 41966U 17008U   19324.90313985 +.00001782 +00000-0 +72603-4 0  9999
2 41966 097.3910 030.1967 0006799 321.4701 038.6051 15.25767474153462
Source of the keplerian elements: AFSPC